Tracking 35331 objects as of 13-Sep-2026
HD Live streaming from Space Station
objects crossing your sky now

CZ-4B DEB

Track CZ-4B DEB now!
10-day predictions


NORAD ID: 37573
Int'l Code: 2008-026E
Launch date: May 27, 2008
Source: People's Republic of China (PRC)
Launch site: Taiyaun Space Center, China (TSC)

Note: This is SATELLITE DEBRIS
Your satellite tracking list
Your tracking list is empty




NASA's NSSDC Master Catalog

Two Line Element Set (TLE):
1 37573U 08026E   26256.36349718  .00000273  00000-0  24136-3 0  9994
2 37573  98.7190 288.6540 0219300 213.8085 202.8535 13.82324344904132
Source of the keplerian elements: AFSPC